Back to catalog

FENGYUN 1C DEB

LostSSO
NORAD 31465·DEBRIS·🇨🇳 China

Launched May 10, 1999 from Taiyuan Satellite Launch Center

Loading…

Next Passes (next 24 hours)

TLE

StaleSource: Space-Track

Epoch: Sep 5, 2023, 22:58 UTC

1 31465U 99025BVD 23248.95717410  .00003609  00000-0  20044-2 0  9997
2 31465  98.6191 305.7719 0122808  80.4205 281.0816 14.07948669836149

Track FENGYUN 1C DEB in real time with AllMySat

Download on the App Store